Weather in Yamishche

Russia / Pskov Oblast     56°08′48″N   31°16′40″E
temp.,
°C
wind,
m/s
gust,
m/s
humid.,
%
clouds,
%
prec.,
mm/h
press.,
hPa
HPBL,
m
13 may, thu
thu1300:00+13ene3997100 4.4 1014388
03:00+12ese6129040 5.5 1013934
06:00+9se5109289 0.1 1014799
09:00+11se5107745 0.2 10151015
12:00+16ese6104879 0.1 10132152
15:00+14ese51068100 0.4 10121329
18:00+10ese499443 2.9 1011574
21:00+9ese38961 3.2 1011270
14 may, fri
fri1400:00+7se399779 0.1 1012245
03:00+6se389811 0.1 1012192
06:00+7se31295100 0.0 1012388
09:00+9se41392100 0.1 1012524
12:00+15sse5106670 0.0 1012966
15:00+15se486457 0.0 1011799
18:00+16se376671 0.1 1009394
21:00+12ese25935 0.6 100891
15 may, sat
sat1500:00+11ese2596100 0.1 100890
03:00+11se2598100 0.3 1007123
06:00+11se2398100 0.6 100793
09:00+16sw118235 0.6 1007407
12:00+19w126620 1.3 10061059
15:00+21w2248100 1.4 10051386
18:00+19wnw226015 0.0 1005682
21:00+13nnw118822 0.3 100610
16 may, sun
sun1600:00+11wnw118952 0.3 100610
03:00+11wsw229584 0.3 100724
06:00+12wsw1497100 0.4 1008119
09:00+15wsw248650 0.6 1009363
12:00+19wsw346798 0.6 10091195
15:00+19wsw3470100 3.4 10101050
18:00+17wsw2586100 1.6 1010399
21:00+14ssw11943 1.9 101110
17 may, mon
mon1700:00+12s229524 0.0 101232
03:00+11sse229696 0.0 101230
06:00+11se2596100 0.0 1012125
09:00+16se368199 0.0 1012398
12:00+21sse4758100 0.0 10111377
15:00+21sse3659100 0.0 10101510
18:00+19se3770100 0.3 1009344
21:00+14nw3798100 3.9 1007323